SL-16 DEB

Satellite information

Favourite Embed

Satellite Type and Status

DEBRISIN ORBIT

Key statistics

Satellite SL-16 DEB at a glance.

Uptime

11946

Days in orbit

Revolutions

≈ 14.1

Per day

Orbit

LEO

Low Earth Orbit

Inclination

70.9

Latest

Satellite identification and parameters

Extended collection of information and parameters for SL-16 DEB.

Object identification

Identified? True

Debris? True

Object name: SL-16 DEB

International designator: 1992-093LB

Object number (NORAD): 39849

Object ID (CCSDS): 39849

Country: COMMONWEALTH OF INDEPENDENT STATES (CIS)

Current information (Y/N): Y

RCS size: SMALL

Orbital parameters

Period: 102.446 minutes

Inclination: 70.8652 deg

SMA: 7252.521 km

Apoapsis: 935.755 km

Periapsis: 813.018 km

RAAN: 139.5002 deg

Eccentricy: 0.0084617

Argument of periapsis: 317.2587 deg

Mean anomaly: 42.1968 deg

Mean motion: 14.05624232 rev/day

Mean motion (dot): 0.00000674 rev/day2

B* drag term: 0.00042948 1/REarth

Two-line elements (TLE)

Creation date: Aug. 12, 2025, 6:14 p.m.

Reference frame: TEME

Reference center: EARTH

Epoch: Aug. 12, 2025, 12:07 p.m. UTC

TLE line 0: 0 SL-16 DEB

TLE line 1: 1 39849U 92093LB 25224.50538192 .00000674 00000-0 42948-3 0 9991

TLE line 2: 2 39849 70.8652 139.5002 0084617 317.2587 42.1968 14.05624232573725

Live tracking on map

Real-time ground track for satellite SL-16 DEB.

In-orbit conjunctions

A list of the most updated potential collisions computed for object SL-16 DEB.

Target Orbit TCA Probability of collision Miss distance Type
FENGYUN 1C DEB SSO 2024-07-27 17:45:00 0.0001217097 162.0 (m) DEBRIS

Associated space launch

Second generation ELING satellite

SL-16 DEB was lifted into orbit during the mission ‘Zenit-2 | Tselina-2 12’, on board a Zenit-2 space rocket.

The launch took place on Dec. 25, 1992, 5:56 a.m. from 45/1.

For more information about the launch, click the button.

Launch to space Zenit-2 | Tselina-2 12
Zenit-2 | Tselina-2 12

Agency: N/A

Status: Launch Successful

Launch date: Dec. 25, 1992, 5:56 a.m. UTC

Rocket: Zenit-2

Launch pad: 45/1

Location: Baikonur Cosmodrome, Republic of Kazakhstan

...

Latest news about this satellite

There are no fresh news available about this satellite. Check back as we update our databases every day.


Newsletter sign-up

Weekly statistics, charts and insights to help you stay on top of the space industry.